Flag for Slovakia Weather past 2 weeks in Bratislava, Slovakia

Now
73 °F

Sunny.


Feels Like: 77 °F
Forecast: 45 / 65 °F
Wind: 18 mph from South

Location: Bratislava Ivanka

Current Time: Apr 27, 2015 at 3:01:00 PM

Latest Report: Apr 27, 2015 at 2:30 PM


Visibility: 10 mi

Pressure: 29.65 "Hg

Humidity: 38%

Dew point: 46 °F

Location of BratislavaLocation

Historic Weather in Bratislava — Graph

°F

Bratislava temperature yesterday

Maximum temperature yesterday: 73 °F (at 2:30 PM)
Minimum temperature yesterday: 50 °F (at 3:00 AM)
Average temperature yesterday: 62 °F

Past Weeks' High & Low Weather Summary

 TemperatureHumidityPressure
High81 °F (Apr 16, 3:00 PM)94% (Apr 27, 4:30 AM)30.39 "Hg (Apr 27, 4:30 AM)
Low37 °F (Apr 19, 5:00 AM)15% (Apr 16, 3:00 PM)29.65 "Hg (Apr 27, 12:30 PM)
Average57 °F51%30.05 "Hg
* Reported Apr 12 2:00 PM — Apr 27 2:00 PM, Bratislava, Weather by CustomWeather, © 2015

Note: Actual official high and low records may vary slightly from our data, if they occured in-between our weather recording intervals... More about our weather records

Advertising

Bratislava weather history for previous 24 hours

 ConditionsComfort  
Time TempWeatherWind HumidityBarometerVisibility
2:00 PM
Mon, Apr 27
73 °FPassing clouds.17 mph38%29.65 "HgN/A
1:30 PM72 °FSunny.18 mph44%29.65 "Hg10 mi
1:00 PM73 °FPassing clouds.16 mph41%29.65 "HgN/A
12:30 PM73 °FPassing clouds.15 mph47%29.65 "HgN/A
12:00 PM70 °FPassing clouds.16 mph50%29.68 "HgN/A
11:30 AM68 °FPassing clouds.14 mph56%29.68 "HgN/A
11:00 AM64 °FPassing clouds.14 mph60%29.68 "HgN/A
10:30 AM66 °FPassing clouds.14 mph60%29.68 "HgN/A
10:00 AM64 °FPassing clouds.12 mph64%29.68 "HgN/A
9:30 AM63 °FPassing clouds.12 mph68%29.71 "HgN/A
9:00 AM61 °FPassing clouds.12 mph72%29.71 "HgN/A
8:30 AM59 °FPassing clouds.10 mph72%29.71 "HgN/A
8:00 AM57 °FSunny.9 mph77%29.71 "Hg10 mi
7:30 AM54 °FSunny.8 mph82%29.71 "Hg10 mi
7:00 AM52 °FSunny.7 mph82%29.71 "Hg10 mi
6:30 AM48 °FClear.7 mph94%29.71 "Hg10 mi
6:00 AM48 °FClear.8 mph87%29.71 "Hg10 mi
5:30 AM48 °FClear.7 mph87%29.71 "Hg10 mi
5:00 AM48 °FClear.9 mph87%29.71 "Hg10 mi
4:30 AM48 °FClear.6 mph94%29.74 "Hg10 mi
4:00 AM48 °FClear.6 mph87%29.74 "Hg10 mi
3:30 AM48 °FClear.6 mph87%29.74 "Hg10 mi
3:00 AM50 °FClear.5 mph88%29.74 "Hg10 mi
2:30 AM50 °FClear.6 mph88%29.74 "Hg10 mi
2:00 AM52 °FClear.3 mph82%29.77 "Hg10 mi
1:30 AM52 °FClear.2 mph82%29.77 "Hg10 mi
1:00 AM54 °FClear.2 mph82%29.77 "Hg10 mi
12:30 AM54 °FClear.3 mph82%29.77 "Hg10 mi
12:00 AM55 °FClear.3 mph77%29.77 "Hg10 mi
11:30 PM
Sun, Apr 26
55 °FClear.1 mph82%29.77 "Hg10 mi
11:00 PM55 °FClear.3 mph77%29.77 "Hg10 mi
10:30 PM57 °FClear.3 mph72%29.77 "Hg10 mi
10:00 PM59 °FClear.No wind72%29.77 "Hg10 mi
9:30 PM61 °FClear.3 mph68%29.77 "Hg10 mi
9:00 PM63 °FClear.6 mph64%29.77 "Hg10 mi
8:30 PM64 °FSunny.3 mph56%29.77 "Hg10 mi
8:00 PM64 °FSunny.7 mph60%29.77 "Hg10 mi
7:30 PM68 °FSunny.7 mph49%29.77 "Hg10 mi
7:00 PM68 °FScattered clouds.8 mph49%29.77 "HgN/A
6:30 PM72 °FSunny.7 mph44%29.77 "Hg10 mi
6:00 PM72 °FSunny.7 mph41%29.77 "Hg10 mi
5:30 PM72 °FPassing clouds.7 mph44%29.77 "HgN/A
5:00 PM72 °FPassing clouds.6 mph41%29.77 "HgN/A
4:30 PM73 °FSunny.3 mph33%29.80 "Hg10 mi
4:00 PM73 °FPassing clouds.6 mph36%29.80 "HgN/A
3:30 PM73 °FPassing clouds.9 mph36%29.80 "HgN/A
3:00 PM73 °FPassing clouds.6 mph36%29.80 "HgN/A
Weather by CustomWeather, © 2015

See weather overviewHow to use our weather pages